Time,TemperatureF,DewpointF,PressureIn,WindDirection,WindDirectionDegrees,WindSpeedMPH,WindSpeedGustMPH,Humidity,HourlyPrecipIn,Conditions,Clouds,dailyrainin,SoftwareType,DateUTC
2013-03-14 00:12:00,29.0,19.0,30.31,North,355,0.0,10.0,65,0.00,,,0.00,,2013-03-14 04:12:00,
2013-03-14 00:22:00,29.0,19.0,30.31,North,360,3.0,6.0,65,0.00,,,0.00,,2013-03-14 04:22:00,
2013-03-14 00:32:00,28.0,18.0,30.28,NNW,338,8.0,13.0,65,0.00,,,0.00,,2013-03-14 04:32:00,
2013-03-14 00:42:00,28.0,18.0,30.28,NNW,338,8.0,13.0,65,0.00,,,0.00,,2013-03-14 04:42:00,
2013-03-14 00:52:00,28.0,18.0,30.29,NNW,345,2.0,12.0,65,0.00,,,0.00,,2013-03-14 04:52:00,
2013-03-14 01:02:00,28.0,18.0,30.28,North,350,2.0,7.0,66,0.00,,,0.00,,2013-03-14 05:02:00,
2013-03-14 01:12:00,28.0,18.0,30.28,North,350,2.0,7.0,66,0.00,,,0.00,,2013-03-14 05:12:00,
2013-03-14 01:22:00,28.0,18.0,30.28,North,355,5.0,14.0,66,0.00,,,0.00,,2013-03-14 05:22:00,
2013-03-14 01:33:00,27.0,18.0,30.29,WNW,283,4.0,10.0,67,0.00,,,0.00,,2013-03-14 05:33:00,
2013-03-14 01:42:00,27.0,18.0,30.29,WNW,283,4.0,10.0,67,0.00,,,0.00,,2013-03-14 05:42:00,
2013-03-14 01:52:00,27.0,18.0,30.29,NW,319,7.0,12.0,67,0.00,,,0.00,,2013-03-14 05:52:00,
2013-03-14 02:02:00,27.0,18.0,30.29,NNW,348,6.0,11.0,67,0.00,,,0.00,,2013-03-14 06:02:00,
2013-03-14 02:12:00,27.0,18.0,30.29,NNW,348,6.0,11.0,67,0.00,,,0.00,,2013-03-14 06:12:00,
2013-03-14 02:22:00,27.0,18.0,30.29,WNW,296,4.0,9.0,68,0.00,,,0.00,,2013-03-14 06:22:00,
2013-03-14 02:33:00,27.0,18.0,30.29,NW,311,8.0,15.0,68,0.00,,,0.00,,2013-03-14 06:33:00,
2013-03-14 02:42:00,27.0,18.0,30.29,NW,311,8.0,15.0,68,0.00,,,0.00,,2013-03-14 06:42:00,
2013-03-14 02:52:00,27.0,18.0,30.29,NW,321,9.0,12.0,69,0.00,,,0.00,,2013-03-14 06:52:00,
2013-03-14 03:02:00,26.0,17.0,30.29,North,351,8.0,13.0,69,0.00,,,0.00,,2013-03-14 07:02:00,
2013-03-14 03:12:00,26.0,17.0,30.29,North,351,8.0,13.0,69,0.00,,,0.00,,2013-03-14 07:12:00,
2013-03-14 03:22:00,26.0,18.0,30.29,NW,308,6.0,13.0,70,0.00,,,0.00,,2013-03-14 07:22:00,
2013-03-14 03:32:00,26.0,18.0,30.30,NW,321,5.0,14.0,70,0.00,,,0.00,,2013-03-14 07:32:00,
2013-03-14 03:42:00,26.0,18.0,30.30,NW,321,5.0,14.0,70,0.00,,,0.00,,2013-03-14 07:42:00,
2013-03-14 03:52:00,26.0,18.0,30.30,NW,321,5.0,14.0,70,0.00,,,0.00,,2013-03-14 07:52:00,
2013-03-14 04:02:00,26.0,18.0,30.30,NW,321,5.0,14.0,70,0.00,,,0.00,,2013-03-14 08:02:00,
2013-03-14 04:12:00,26.0,18.0,30.30,NW,321,5.0,14.0,70,0.00,,,0.00,,2013-03-14 08:12:00,